Wind_Speed
20 21 21 21 21 20 19 20 21 21 22 22 23 22 23 24 25 25 26 27 28 28 28 29 32 35 37 39 42 42 42 42 41 39 37 35 33 32 30 29 28 27 26 26 25 24 23 21 19 19 19 18 18 19 19 19 18 18 18 19 20 20 20 20 20 20 21 21 22 22 23 24 24 25 25 25 25 24 24 23 22 22 21 21 22
20 20 20 21 21 21 20 20 20 21 21 22 22 22 22 23 25 25 25 26 28 29 29 29 29 31 33 35 37 40 43 44 44 43 41 38 36 34 32 31 30 29 28 27 26 26 25 24 22 20 19 19 19 20 20 20 20 19 18 19 20 21 21 21 20 19 19 19 19 20 21 22 23 23 24 24 24 22 21 21 19 19 18 19 19
23 21 20 20 20 20 20 20 19 20 21 21 21 21 21 22 24 24 24 25 26 27 28 28 29 30 32 33 34 36 40 43 44 45 44 42 39 36 33 32 31 30 30 28 27 27 26 25 24 23 21 20 20 21 21 21 21 20 20 19 20 21 21 21 21 20 19 18 18 18 19 20 20 21 21 21 21 21 20 19 18 17 17 17 17
26 25 24 22 21 21 21 20 19 19 19 20 21 21 21 21 22 24 24 24 24 25 26 27 28 29 30 30 31 32 35 38 41 44 46 46 41 36 34 33 32 32 31 30 29 28 27 27 26 25 23 22 22 22 22 22 22 22 21 21 20 20 21 21 21 20 19 19 18 18 18 19 19 19 19 19 19 19 19 18 17 17 17 17 17
26 27 27 26 25 23 22 22 21 20 19 19 20 21 21 21 21 23 24 24 24 24 24 25 26 27 27 27 28 30 31 34 38 42 45 46 43 37 34 34 33 33 31 31 30 29 28 28 28 27 25 24 23 23 23 23 23 23 23 22 21 21 21 21 21 21 20 19 19 19 18 19 19 19 18 18 18 18 18 17 17 18 18 18 18
26 26 27 28 28 27 25 23 23 22 21 19 19 21 22 22 21 21 22 23 24 23 23 23 24 25 24 24 25 27 28 32 38 41 41 42 43 40 37 36 36 36 34 32 31 30 29 29 29 29 28 27 26 26 25 24 24 24 23 23 22 22 21 21 21 21 20 20 19 19 19 19 19 19 18 18 18 19 19 18 18 19 19 19 19
25 25 26 27 28 28 27 26 24 24 23 21 20 20 21 22 22 21 21 22 23 23 23 22 21 22 22 22 23 25 27 30 37 38 32 31 36 39 39 39 40 40 39 36 33 30 29 29 30 31 31 30 29 27 26 25 24 24 24 23 22 22 21 21 21 20 20 20 19 19 19 19 19 19 18 18 18 19 19 18 19 20 20 20 20
27 26 26 26 26 27 28 28 26 25 24 23 22 20 20 22 22 21 20 21 22 22 22 21 20 19 20 21 22 23 23 25 31 32 26 24 30 35 36 38 39 40 40 38 35 32 31 32 33 34 33 31 28 27 26 25 24 23 23 23 23 22 22 21 20 20 20 19 19 18 18 18 18 18 17 18 18 18 19 19 19 19 20 20 20
29 28 27 26 25 25 26 27 28 27 25 23 23 22 21 21 22 22 20 20 21 21 21 21 19 17 17 19 20 21 20 20 22 25 25 25 25 28 31 33 34 36 38 38 36 35 35 34 33 32 30 28 27 26 26 25 24 23 22 22 22 22 22 21 20 20 19 19 18 18 18 18 18 17 17 17 17 17 18 18 18 19 19 20 20
30 30 29 28 26 24 24 25 27 28 27 25 23 22 22 21 21 21 20 20 20 20 19 19 19 17 17 18 18 19 19 19 19 22 24 23 20 22 25 28 31 34 35 34 33 33 32 30 29 27 25 26 26 26 26 25 24 23 22 22 22 21 21 21 20 19 19 19 18 18 18 18 18 17 17 17 16 16 16 17 17 18 18 19 19
30 31 32 31 30 27 24 23 25 27 29 28 25 23 23 22 21 20 20 20 19 19 19 18 18 18 18 18 18 19 19 19 20 22 23 21 18 19 22 25 28 31 31 29 28 27 26 25 25 24 24 25 26 25 25 24 24 23 22 21 21 21 21 21 20 19 19 19 18 18 18 18 18 17 17 16 16 15 15 15 16 16 17 17 17
30 31 32 33 33 31 28 26 25 26 27 29 28 25 24 23 22 21 20 19 19 19 19 19 18 18 18 19 20 21 20 20 20 21 22 21 20 21 22 24 26 27 27 26 25 24 23 25 26 25 24 25 25 24 23 23 23 22 21 21 21 21 20 20 20 19 19 19 18 18 18 17 17 17 16 16 15 15 14 14 14 14 15 15 16
31 31 32 33 34 33 32 30 28 26 26 27 28 28 26 24 23 22 20 19 19 18 19 19 18 18 18 18 19 20 21 22 22 22 22 21 23 25 23 22 24 26 26 25 24 24 25 27 28 26 24 23 22 21 22 22 22 21 20 20 20 20 19 19 19 19 19 19 18 17 17 17 16 16 15 15 14 13 12 12 12 13 13 14 15
32 32 32 33 33 33 33 32 31 29 27 25 26 28 27 25 24 23 22 20 19 18 18 18 18 18 18 18 18 19 20 22 24 25 24 23 25 27 26 24 24 25 26 26 26 26 26 27 26 24 22 20 19 20 21 21 21 21 20 19 19 19 19 18 18 18 18 17 17 16 16 15 15 15 15 14 14 12 12 11 12 12 13 13 14
31 32 32 31 31 32 33 33 33 32 31 28 25 26 27 26 25 24 23 21 19 18 17 16 17 17 18 18 18 18 18 19 21 24 26 26 27 28 29 28 25 25 27 28 29 29 28 26 24 23 21 19 18 20 21 20 20 20 19 18 18 18 18 18 18 17 17 16 15 15 15 14 14 14 14 14 13 12 11 11 11 12 12 13 14
30 31 31 30 29 30 31 32 33 33 33 31 28 25 25 26 26 25 24 22 20 18 17 16 16 16 18 19 19 18 18 18 19 19 21 23 24 25 29 31 29 28 30 31 32 32 31 28 24 23 21 19 18 19 20 20 18 18 19 18 17 17 17 17 17 16 15 15 14 14 14 14 13 14 14 14 13 12 12 11 11 12 12 13 13
30 30 30 30 29 29 30 31 32 33 33 33 30 27 25 25 25 26 25 23 21 19 18 17 16 15 16 18 20 19 18 18 18 18 18 18 18 21 26 31 33 32 32 34 35 35 34 30 27 24 22 20 19 19 20 19 18 17 18 17 17 16 16 15 15 14 14 14 13 13 13 13 13 13 14 13 13 13 12 12 12 12 13 13 13
30 30 30 30 29 29 29 29 30 30 31 31 30 28 26 24 24 24 25 25 23 21 19 19 18 16 15 17 19 19 19 19 19 18 18 17 16 17 20 25 30 32 34 37 38 37 36 34 29 26 23 20 19 19 19 19 18 17 17 17 17 17 15 15 14 14 13 13 13 12 12 12 13 13 13 13 13 13 12 12 12 12 12 13 13
30 30 30 29 28 28 28 28 28 28 28 27 26 25 24 23 23 22 22 23 24 23 22 20 20 19 17 16 17 18 18 19 20 19 19 18 17 17 18 19 22 25 30 35 37 37 37 34 29 24 22 20 19 18 18 19 18 18 17 17 17 17 15 15 14 13 13 13 12 12 12 12 13 13 13 13 13 13 12 12 12 12 12 12 13
29 29 28 27 26 26 26 26 26 26 25 25 23 22 21 20 20 20 19 19 21 23 22 21 21 20 20 18 18 18 18 18 19 19 19 19 19 19 19 17 16 16 19 23 26 26 26 25 23 21 19 19 19 19 19 19 20 19 18 17 17 16 15 15 14 14 13 13 13 13 12 12 13 13 13 13 13 13 13 12 12 12 12 12 13
28 27 26 25 25 24 24 24 24 25 25 24 23 21 20 19 19 18 18 17 17 18 20 20 19 20 20 20 19 18 18 18 19 19 19 19 19 19 19 18 18 17 16 15 16 17 17 18 19 20 19 20 20 20 20 21 21 21 20 18 17 15 15 15 14 14 14 13 13 13 13 12 13 13 13 13 13 13 13 12 12 12 13 13 13
26 25 24 24 23 22 22 23 24 24 24 24 23 22 20 19 18 18 18 17 16 15 16 16 17 18 18 19 20 19 18 19 19 19 19 20 19 19 19 18 19 20 19 18 16 15 14 16 19 21 22 22 21 20 21 21 22 23 21 19 17 15 15 15 15 15 15 14 14 14 13 13 13 13 13 13 13 13 13 13 13 13 13 13 13
26 25 23 23 22 22 22 23 23 24 24 24 24 23 22 20 19 18 18 17 16 15 14 14 15 16 16 17 19 19 18 19 20 20 20 20 19 19 19 19 19 20 21 21 19 16 14 15 19 21 22 21 20 20 21 22 22 23 23 21 19 17 16 15 16 16 16 16 16 15 14 14 15 14 14 13 13 13 13 13 13 13 13 13 13
25 24 24 23 22 22 23 23 23 24 24 25 24 24 23 22 20 19 18 17 16 15 14 13 14 16 16 17 18 19 18 18 19 20 20 20 20 19 19 20 20 20 20 19 19 18 16 16 18 20 20 20 20 20 21 22 24 24 23 21 20 19 18 17 16 17 18 18 18 17 16 16 16 16 15 14 14 14 14 13 13 13 13 13 13
25 25 24 24 23 22 23 24 24 24 24 24 25 25 24 23 22 20 19 17 16 15 15 15 15 16 16 17 17 19 19 18 18 19 20 20 19 20 20 20 20 20 19 17 17 18 19 19 20 20 19 18 17 16 17 20 22 23 23 23 22 22 20 18 17 18 19 19 20 19 18 18 17 17 16 15 15 15 14 14 14 14 13 12 12
25 26 26 25 24 23 23 24 23 23 23 23 24 25 25 24 23 21 20 18 17 16 15 16 16 16 17 17 17 18 19 19 18 19 19 19 19 19 19 19 20 20 19 17 18 19 20 20 20 18 17 16 16 16 16 16 16 17 18 21 23 23 22 20 19 20 20 20 21 21 20 19 18 18 18 17 16 15 14 14 14 14 13 13 13
26 26 27 26 25 25 24 24 23 23 23 23 23 23 24 24 23 22 20 18 17 17 16 16 16 16 16 17 18 19 20 20 20 19 19 19 19 19 18 18 19 19 19 19 19 20 22 22 21 20 20 20 19 18 17 14 12 13 15 17 20 23 24 24 22 21 21 22 22 22 21 20 20 20 19 18 17 16 15 15 15 14 14 13 13
27 27 27 27 26 25 24 24 24 23 22 22 22 22 22 22 22 22 21 18 16 16 16 16 16 16 16 16 17 19 21 22 21 21 20 20 19 19 19 18 17 18 19 20 21 22 23 24 23 24 24 24 24 23 22 19 16 16 17 18 20 22 25 26 25 23 22 23 23 22 22 21 21 21 20 19 18 17 16 15 15 15 14 14 14
28 28 28 27 27 25 24 24 23 22 22 21 20 20 21 22 21 20 20 19 17 16 16 16 15 15 15 15 14 16 20 22 23 23 23 22 21 20 20 19 18 18 19 20 21 22 23 23 23 23 25 25 25 25 25 24 22 20 19 20 21 22 24 26 26 25 24 24 24 24 23 22 22 22 21 20 19 19 18 17 16 16 15 15 15
29 29 28 28 27 25 23 22 22 21 21 20 19 17 17 19 21 20 19 18 18 17 17 16 15 14 14 14 13 13 15 18 21 22 23 23 23 22 22 22 21 20 20 20 21 22 22 22 22 23 24 24 24 23 24 25 24 22 22 22 22 23 24 25 26 27 26 25 24 24 24 23 23 23 22 22 21 20 19 18 17 17 16 16 16
29 28 28 27 26 24 23 22 21 20 20 20 19 17 14 14 16 18 19 18 17 17 17 17 16 15 15 13 12 12 12 14 16 18 20 21 22 23 23 23 23 22 22 22 22 22 22 22 22 22 23 23 23 23 24 25 25 25 24 23 23 23 23 25 27 29 29 27 26 25 24 24 24 24 23 23 22 22 21 20 18 18 17 17 17
29 28 28 27 25 24 23 23 23 22 20 20 19 19 17 14 11 12 15 17 18 17 16 16 16 16 15 14 12 11 11 12 13 14 15 17 18 19 20 21 22 22 23 23 23 22 23 23 22 21 21 22 23 23 24 25 25 26 26 25 24 23 23 24 26 29 29 29 28 27 26 25 25 25 25 24 23 22 22 20 19 19 19 17 17
28 27 27 27 26 25 24 24 24 24 22 21 20 19 19 17 13 11 10 12 15 16 16 16 15 15 15 14 13 12 12 12 13 13 14 15 16 17 17 18 19 19 20 21 21 21 22 23 23 21 20 21 22 24 26 26 26 26 27 27 26 26 25 25 24 25 27 29 29 29 28 27 26 26 25 25 24 23 22 21 21 21 19 18 18
27 27 26 27 26 26 26 25 25 24 23 23 22 20 19 18 17 14 12 10 9 11 14 16 16 16 16 15 14 13 12 13 13 14 14 15 15 16 17 17 18 18 19 20 21 22 22 23 23 23 23 22 23 24 26 27 27 27 27 27 27 27 28 28 26 24 24 26 28 30 31 30 28 27 26 26 25 24 23 23 22 21 20 19 19
26 26 25 26 26 26 26 26 25 25 23 23 22 21 20 19 18 17 16 14 11 10 11 13 15 16 16 15 15 14 14 13 14 14 14 15 15 16 16 17 18 18 19 20 20 21 22 23 23 24 24 25 25 26 28 28 27 27 26 27 27 28 30 32 32 28 25 24 26 29 32 33 32 29 27 27 27 26 24 24 23 22 21 20 20
25 25 25 26 26 26 25 25 25 25 24 23 23 22 20 19 18 17 17 16 15 13 12 13 14 15 15 15 15 15 15 14 14 14 14 14 14 15 16 16 17 18 18 18 19 20 20 21 22 22 24 25 26 27 28 29 30 29 28 28 30 31 31 33 34 32 30 29 29 29 32 35 35 32 29 29 29 27 25 25 24 23 22 21 21
24 24 25 26 26 26 25 24 24 24 24 24 23 22 20 19 18 17 17 16 15 14 14 14 14 14 14 15 15 15 15 14 14 14 14 14 14 14 15 15 16 17 17 18 19 19 20 21 21 22 23 24 25 26 28 29 30 31 31 31 32 32 33 34 33 32 30 30 30 30 31 35 36 33 30 30 30 28 26 25 25 24 23 23 23
24 24 25 26 27 27 26 25 24 23 23 24 23 22 20 19 18 17 16 16 14 14 15 15 15 14 14 14 14 15 15 14 14 13 14 14 14 15 15 16 16 17 17 18 19 20 20 22 23 24 24 25 26 27 28 29 30 30 32 33 34 34 35 36 34 31 28 28 28 29 30 32 34 33 31 29 29 28 26 26 26 26 24 24 24
24 24 25 26 27 27 27 27 25 23 23 23 22 22 21 20 19 17 16 16 14 13 14 15 16 16 15 15 14 14 14 14 14 14 15 16 16 17 17 18 19 19 20 20 21 21 21 22 23 24 25 26 26 27 28 29 30 30 32 34 34 34 34 34 31 28 27 26 26 27 29 31 33 33 32 31 29 28 26 26 27 27 26 25 24
24 24 25 26 28 28 28 28 26 25 23 22 22 21 21 20 19 18 17 16 14 13 13 15 16 17 17 17 16 16 15 15 16 16 16 16 17 17 17 18 18 19 20 21 21 21 21 22 23 24 25 26 27 28 28 29 30 31 32 33 33 33 33 33 31 30 30 29 26 26 28 31 34 35 33 32 31 29 27 27 27 27 27 27 26
24 24 25 27 28 29 29 28 27 25 23 22 22 21 20 20 19 18 17 16 14 13 13 14 16 17 18 18 18 17 17 17 17 18 18 18 18 17 17 17 17 18 18 19 19 20 20 21 22 23 24 25 26 28 29 29 30 31 32 32 32 32 33 34 34 34 34 33 31 28 27 29 33 36 35 34 32 30 29 28 28 28 28 28 27
24 25 25 27 29 30 30 28 26 24 22 22 21 21 20 19 18 17 17 16 14 12 12 14 15 17 18 18 18 18 18 18 18 19 19 20 19 19 18 18 18 19 19 19 19 19 19 20 20 21 22 22 24 26 27 27 28 29 30 30 30 31 33 33 32 33 35 36 36 33 30 29 31 34 37 36 34 31 30 29 28 29 29 29 28
25 25 26 27 29 30 29 27 25 22 21 20 20 20 18 17 17 16 16 15 14 13 13 14 16 17 18 19 18 19 19 19 19 19 20 21 21 20 20 19 19 19 19 19 19 19 19 19 19 19 19 20 21 22 23 23 24 25 27 29 31 33 34 34 33 33 34 35 36 35 34 32 32 33 37 38 35 32 30 30 30 30 30 30 29
25 25 25 26 28 29 28 26 24 22 20 20 19 19 17 16 15 15 15 15 15 14 15 16 17 18 19 20 20 21 21 21 20 20 20 21 21 21 20 19 18 18 18 18 18 18 18 18 18 18 18 19 19 18 17 16 17 19 22 26 30 32 33 34 34 33 31 31 32 33 33 33 33 33 35 37 36 33 32 31 31 31 31 30 29
25 24 24 25 27 27 26 24 23 21 20 19 18 18 16 16 15 15 15 15 16 16 16 17 18 18 19 20 21 22 22 22 22 22 22 22 22 22 21 19 18 17 16 16 16 16 17 17 17 16 15 15 15 14 13 12 13 16 19 22 25 28 30 31 32 32 30 30 32 33 33 32 32 33 35 37 37 35 32 31 31 32 32 31 29
24 23 23 24 25 26 25 24 22 21 21 20 18 17 17 16 16 16 16 16 16 16 16 16 16 16 17 17 19 20 21 21 21 21 21 21 22 22 22 20 18 17 16 15 15 14 15 15 15 14 11 10 10 10 10 11 13 16 19 21 24 26 28 30 32 34 33 33 33 35 35 33 33 34 35 36 35 34 33 32 32 33 32 30 28
22 21 21 22 24 24 24 24 22 21 21 20 19 18 17 17 16 16 15 15 14 14 14 14 14 15 16 17 18 19 20 21 21 20 19 19 20 20 21 20 19 18 17 16 15 15 14 13 13 12 10 8 8 9 9 10 11 13 17 20 22 25 27 29 30 33 34 34 34 35 36 35 34 34 35 35 34 33 32 31 32 32 31 29 28
20 19 18 19 21 22 23 23 23 22 21 20 19 18 17 17 16 15 14 14 14 14 15 15 17 18 18 19 19 19 20 21 21 20 19 18 18 18 20 19 19 18 17 16 16 15 14 13 13 13 12 10 9 8 9 10 11 12 14 16 19 22 25 26 26 28 30 31 32 33 34 34 33 32 33 33 33 32 30 30 31 32 30 29 28
18 18 18 18 18 20 21 22 22 21 21 20 19 18 18 17 16 15 15 15 16 17 18 18 19 20 20 20 20 19 19 20 20 19 18 17 16 17 18 19 18 18 17 16 15 15 15 14 13 12 13 13 12 11 11 12 13 13 14 14 15 18 21 23 23 24 27 29 30 30 31 31 31 29 29 30 31 31 30 30 31 30 28 27 27
19 18 19 18 17 18 19 20 20 20 20 20 19 18 18 18 17 17 17 17 18 19 20 20 20 21 20 20 19 18 18 19 19 18 17 16 16 16 17 18 17 18 17 16 15 15 15 15 13 12 12 12 12 12 13 13 14 15 15 15 14 15 17 20 21 22 24 26 27 27 27 27 27 26 27 28 30 30 31 30 29 28 27 26 27
22 21 20 18 17 17 18 18 19 18 19 19 19 18 18 19 19 19 19 19 19 20 21 21 21 20 19 18 18 17 17 18 18 18 17 16 15 16 16 16 16 17 18 17 16 16 16 15 15 13 11 10 10 11 12 12 13 15 16 16 14 14 15 17 19 21 23 24 24 25 25 25 25 25 27 28 30 30 30 30 28 26 25 26 27
Wind_Direction
322 320 319 317 315 313 310 307 306 305 303 301 299 297 294 290 286 282 277 272 269 267 266 266 265 264 260 255 251 249 249 250 250 250 250 250 251 253 255 257 260 262 264 267 271 273 275 279 284 286 284 285 286 287 286 285 285 284 278 271 267 264 262 260 260 261 261 262 264 267 269 271 273 273 272 272 271 271 272 272 273 273 274 275 275
322 320 318 317 316 315 313 310 308 306 305 303 300 297 295 292 289 286 282 277 274 271 269 267 265 264 263 260 256 253 250 249 250 249 247 247 248 249 251 254 257 260 263 264 267 270 272 275 279 283 285 284 285 287 286 284 282 282 281 275 269 266 264 262 261 261 261 261 261 263 265 268 271 273 274 275 276 276 275 275 275 275 275 274 273
324 324 322 319 317 315 314 313 310 307 305 303 301 298 295 293 291 288 285 280 277 275 273 270 266 264 262 259 258 256 252 250 251 250 247 244 244 246 247 251 254 258 261 263 264 266 269 271 275 279 283 283 283 285 285 284 282 281 281 279 274 270 267 265 263 262 261 261 260 260 261 263 265 268 271 274 276 276 276 274 273 273 271 269 269
322 322 322 321 319 317 315 314 311 308 306 304 302 301 298 296 294 293 290 285 280 277 274 272 268 266 265 262 258 257 256 254 253 251 246 241 240 242 244 247 251 255 258 261 264 265 266 269 272 275 280 283 283 283 283 283 281 279 279 278 276 272 269 266 265 263 261 260 259 258 258 258 259 262 266 268 270 271 272 272 272 270 268 266 266
320 319 319 319 319 318 316 315 313 310 307 304 302 301 300 299 298 297 294 290 285 281 276 272 269 267 266 264 261 259 258 259 256 252 248 242 237 237 241 243 246 250 254 258 262 265 266 267 269 272 277 281 282 281 281 280 278 277 276 276 275 273 270 266 264 262 261 260 259 259 258 258 259 260 262 263 264 265 266 268 269 269 267 266 266
318 317 316 316 317 317 316 315 313 311 310 306 303 300 300 300 301 302 300 296 290 285 280 275 270 267 263 261 262 258 256 258 256 253 253 247 238 234 237 241 244 247 251 255 259 262 264 266 268 271 276 281 281 279 278 276 274 273 273 273 274 273 270 267 264 262 261 260 259 260 260 261 261 261 262 263 264 265 264 264 265 265 266 267 267
319 318 316 314 314 314 315 315 312 310 309 309 307 303 301 302 303 305 305 302 296 290 286 280 273 267 261 258 258 256 255 255 250 251 256 248 235 233 238 243 247 251 251 252 254 258 262 265 268 272 278 283 282 277 274 272 269 269 269 270 271 271 269 267 265 262 260 259 259 259 260 261 262 263 264 265 266 267 266 265 264 265 266 266 267
320 319 317 314 312 310 311 313 313 311 308 307 307 305 304 304 306 308 308 307 303 295 290 285 278 271 263 258 255 255 258 254 247 250 256 247 234 236 242 245 250 253 252 250 251 254 258 263 269 274 279 282 280 275 273 271 267 265 266 267 268 269 267 265 263 261 260 260 260 260 259 259 261 262 263 264 265 266 267 267 266 266 266 266 267
322 320 317 314 310 307 306 308 311 311 309 306 304 303 303 303 306 309 309 309 307 302 295 289 284 277 270 265 261 259 261 260 255 256 257 249 240 239 242 246 249 250 249 249 251 254 259 264 271 275 277 277 274 273 272 270 266 264 264 265 266 266 266 264 262 260 260 261 261 260 259 259 259 259 260 261 261 263 264 266 266 266 266 266 267
322 321 319 315 310 307 304 303 305 307 308 307 304 301 300 301 303 307 309 309 308 306 301 294 287 278 269 266 267 264 261 261 263 263 255 244 238 240 242 244 245 246 249 251 254 259 264 270 273 273 273 272 270 269 268 267 266 264 262 262 263 264 264 264 262 261 261 260 260 259 259 258 258 258 258 258 258 259 260 262 263 264 265 267 269
320 321 320 317 313 310 306 302 300 301 303 305 305 302 299 298 299 301 304 306 307 306 303 297 292 282 269 262 261 260 260 257 256 258 253 244 243 250 251 247 245 246 250 253 257 263 268 271 271 270 270 269 265 262 262 263 263 262 261 261 261 262 262 263 262 262 260 259 258 258 258 258 257 257 257 257 257 258 258 259 261 262 264 267 270
316 317 318 316 314 312 309 306 303 300 300 301 302 302 299 296 295 296 299 301 303 305 304 299 294 287 277 267 259 256 257 255 252 255 255 251 252 255 252 249 248 248 249 253 259 266 268 269 270 269 265 261 259 257 257 259 260 259 258 258 259 261 261 261 261 261 260 259 258 258 258 258 258 258 257 256 256 257 258 260 262 263 264 266 269
314 315 316 315 313 312 311 311 309 306 302 300 299 298 297 295 292 292 293 296 298 301 303 302 297 288 281 276 267 260 255 250 247 249 252 252 253 253 251 248 246 245 247 250 256 263 267 268 268 264 257 255 255 254 254 255 256 256 256 256 257 259 261 261 261 260 259 258 258 257 258 258 258 259 258 257 257 258 260 261 263 266 268 269 271
315 315 316 314 311 310 310 311 311 309 306 302 298 295 294 293 291 289 289 291 294 296 299 302 299 291 284 280 276 269 262 254 248 246 247 248 248 248 248 246 242 241 241 244 251 259 263 266 264 255 251 255 255 251 251 252 252 253 254 256 257 258 260 262 261 259 258 257 256 256 256 256 257 258 258 258 259 261 262 263 265 267 270 272 274
317 316 316 314 311 308 308 308 309 309 307 304 300 295 293 291 289 287 286 285 288 291 293 296 298 296 289 284 281 276 269 263 256 251 250 251 248 244 244 245 245 241 237 239 249 257 259 260 259 251 251 260 259 251 248 247 247 249 253 256 258 259 260 261 260 258 256 254 253 251 251 252 253 254 256 258 259 261 262 264 266 267 269 271 273
318 317 317 316 312 309 307 307 307 307 307 306 305 301 296 292 288 285 283 281 281 284 288 290 292 295 294 290 287 283 276 270 264 260 257 257 255 248 242 244 247 246 241 240 246 254 256 256 254 252 256 264 266 259 251 245 244 247 252 257 260 259 259 260 258 257 254 252 249 247 246 246 247 249 253 256 259 261 262 265 267 267 267 269 271
320 319 317 316 315 312 310 309 309 308 308 309 309 307 303 298 291 286 283 280 276 276 281 284 285 287 291 291 289 285 281 276 270 267 265 262 260 254 245 243 245 245 243 241 242 246 251 251 249 251 256 262 269 269 260 249 245 247 252 257 259 259 259 259 257 255 252 249 245 242 241 241 243 246 250 254 258 261 262 264 265 266 266 267 268
322 320 318 317 316 316 316 316 315 313 313 313 313 312 310 305 299 292 286 282 277 273 273 277 281 281 283 287 288 285 282 279 276 273 270 265 262 261 255 248 244 241 239 238 238 239 244 247 247 246 249 255 264 270 266 256 249 248 250 252 255 257 257 256 255 254 250 247 243 239 237 238 240 245 249 253 257 259 261 262 262 263 265 266 267
323 320 319 318 319 321 322 322 321 319 318 318 319 317 315 311 306 301 294 288 282 276 271 272 275 278 278 279 283 283 281 279 277 278 277 272 267 268 269 261 252 244 240 240 239 239 242 245 243 241 242 249 257 264 266 260 253 250 249 248 250 254 254 253 254 253 251 248 243 237 235 236 239 244 249 253 257 259 261 261 262 264 266 267 269
322 319 318 319 321 323 323 323 324 324 323 325 326 325 323 318 313 310 305 297 288 281 277 274 272 273 275 275 276 279 278 276 275 274 277 277 273 272 272 265 253 246 246 245 242 241 243 243 238 237 242 249 253 259 263 261 255 252 250 249 250 253 252 252 252 251 248 245 241 237 234 236 241 246 250 255 258 260 262 263 265 268 269 269 269
321 319 318 319 320 322 322 322 323 325 326 328 329 329 328 325 321 318 314 308 300 290 283 277 272 271 273 273 273 274 275 275 273 270 271 274 274 274 273 265 253 248 252 253 249 249 250 243 237 240 247 251 253 255 258 259 256 251 248 248 250 253 254 254 252 252 249 244 239 237 235 238 244 249 254 259 262 263 265 267 269 270 270 269 266
321 319 318 318 318 319 320 320 321 322 324 325 326 326 327 326 324 322 319 316 311 302 290 280 273 271 273 273 271 270 270 272 272 270 268 269 271 273 273 268 260 253 251 250 250 254 256 249 244 245 248 252 255 257 258 259 256 251 247 245 246 250 253 255 254 253 253 249 244 239 237 240 247 251 256 260 263 266 268 268 269 269 269 267 266
321 320 319 318 318 318 317 317 317 317 319 320 320 322 323 323 322 320 319 317 314 308 298 284 273 270 272 274 273 270 268 268 269 269 267 265 266 269 270 270 267 261 256 252 248 248 253 249 244 244 249 254 260 263 262 259 255 250 247 245 244 245 248 252 254 253 252 251 248 244 240 241 247 251 254 258 261 263 266 267 268 268 267 267 267
321 320 318 317 316 315 315 315 315 315 315 316 317 317 317 317 316 315 315 315 312 307 300 289 277 270 269 271 272 272 270 267 266 267 266 263 262 262 264 268 269 268 266 259 249 245 243 241 243 251 258 263 267 268 264 257 250 247 246 247 248 247 246 249 252 253 252 250 249 247 244 243 246 250 251 253 256 259 262 266 268 268 268 269 269
320 318 317 315 314 313 312 312 313 314 315 316 316 315 314 313 312 311 310 311 310 306 299 290 280 272 269 267 266 268 269 267 264 264 264 263 260 258 259 263 266 268 269 263 252 246 243 243 248 254 259 261 263 264 263 256 248 247 248 250 252 253 251 249 251 253 253 251 250 250 247 245 247 250 251 251 253 255 259 263 266 268 269 270 270
322 319 317 315 313 312 311 310 311 312 314 315 316 315 313 313 312 311 309 309 308 307 301 294 285 278 272 268 263 262 264 265 263 262 261 261 260 259 258 259 261 263 264 261 255 249 246 246 248 249 252 257 260 262 266 261 253 252 253 252 253 253 250 246 247 249 250 250 250 251 250 247 248 249 249 250 251 253 256 259 262 265 268 270 270
324 322 319 317 314 311 309 309 310 311 312 313 314 313 312 311 310 310 309 308 306 304 300 296 292 288 282 275 268 262 260 260 260 260 260 260 260 259 258 258 259 261 260 257 252 248 246 245 245 246 250 257 261 266 270 270 267 271 272 266 262 257 250 243 242 243 246 248 249 251 251 248 247 247 247 248 249 251 253 257 260 263 266 270 271
326 324 322 319 316 313 310 310 310 310 310 312 314 313 311 308 306 306 307 307 303 298 295 293 293 292 290 285 277 266 260 258 257 257 258 259 259 259 258 256 256 257 258 255 250 247 246 246 246 247 251 256 261 263 264 263 265 272 276 274 271 265 255 246 239 239 244 247 248 250 251 249 247 247 248 248 248 250 252 255 258 261 264 268 272
325 324 323 321 318 315 312 311 311 310 310 311 314 314 313 311 309 306 305 306 305 300 295 292 292 292 293 291 285 273 264 260 258 257 257 257 258 259 259 258 255 252 253 253 252 252 251 251 251 251 253 256 260 261 260 257 256 260 265 269 270 269 262 251 241 237 240 245 247 249 250 249 248 247 248 248 248 248 250 252 255 258 260 265 270
323 321 321 320 318 316 313 311 311 311 310 311 312 312 312 314 315 313 310 307 308 309 305 299 296 296 297 296 292 282 271 264 261 260 259 259 258 258 258 259 258 255 254 254 255 255 255 255 255 254 252 253 255 257 258 254 249 248 256 263 266 267 266 258 247 238 237 240 245 248 249 249 247 246 246 245 245 246 248 249 251 255 257 260 266
323 320 319 319 318 317 315 312 311 311 312 312 312 310 308 309 315 319 319 314 310 312 313 310 306 304 303 302 300 294 284 274 266 263 261 261 260 259 258 258 259 259 258 257 257 258 258 258 258 257 255 254 253 254 255 252 246 244 249 255 259 261 262 259 252 244 239 238 242 245 247 248 246 244 243 243 243 244 245 247 250 253 254 257 262
325 321 319 319 320 319 317 314 313 313 314 314 314 311 309 304 302 311 321 322 317 313 313 315 314 312 307 304 303 302 298 290 279 269 263 261 261 261 261 261 261 261 260 258 258 260 261 261 261 259 257 257 257 257 256 253 250 247 248 253 257 259 259 257 253 248 244 240 239 242 245 247 246 244 242 242 242 243 244 246 249 250 252 255 260
325 322 319 319 320 320 318 316 314 314 315 316 315 313 311 308 302 295 302 318 322 319 317 318 319 316 311 306 302 300 298 295 289 280 271 264 262 261 262 263 264 264 264 263 262 262 262 262 262 260 256 254 257 259 259 258 255 252 251 253 257 259 260 259 256 254 249 243 239 239 242 244 245 246 245 244 243 243 244 245 247 248 250 253 257
325 322 319 318 319 319 318 316 315 315 316 317 317 314 311 311 311 305 297 296 304 312 315 318 319 318 316 312 305 298 292 289 286 282 276 271 267 264 263 263 264 264 265 265 265 265 264 264 265 264 260 255 253 254 256 258 258 256 254 254 256 258 259 260 259 259 258 252 246 242 240 240 242 245 246 245 243 242 242 244 245 246 248 250 253
325 322 319 319 318 318 318 317 315 315 316 316 316 315 311 308 310 312 308 299 292 294 303 311 315 316 314 313 310 302 294 287 283 281 279 276 273 271 269 268 267 266 265 264 263 263 263 263 263 263 262 260 256 253 253 255 256 256 255 254 253 253 255 257 258 260 263 265 262 254 246 242 239 239 241 243 242 241 241 242 243 245 245 247 250
326 322 320 319 318 318 319 317 315 314 315 315 315 315 312 306 305 309 310 305 297 294 298 305 310 312 311 311 310 307 301 295 289 286 286 285 282 279 277 274 273 272 271 270 269 268 268 267 266 265 263 262 260 257 256 255 255 255 253 250 248 250 253 256 258 259 261 264 267 263 254 245 239 235 236 239 239 238 238 239 240 243 245 245 247
326 323 321 320 319 319 319 318 315 313 312 313 315 315 312 306 302 304 307 304 298 294 295 298 303 306 307 308 309 309 306 303 298 294 291 290 289 288 286 284 282 281 279 278 278 277 276 275 274 272 270 268 265 262 260 257 255 254 252 249 248 248 250 253 256 259 259 260 262 261 254 247 242 237 237 240 240 238 237 238 238 240 243 244 245
324 323 322 320 320 320 320 318 316 313 311 312 313 314 312 306 300 298 299 299 296 293 293 293 294 296 298 302 305 306 306 304 302 300 297 294 293 293 293 292 290 289 287 286 283 282 280 277 276 274 272 271 269 267 264 261 258 255 253 252 250 247 247 251 254 255 253 254 257 255 251 248 245 241 240 244 246 243 240 240 239 239 240 242 243
321 322 321 320 320 320 320 320 318 314 310 310 311 312 311 306 299 293 291 293 293 293 292 291 291 291 290 291 295 298 299 298 297 295 293 291 291 291 291 292 292 292 292 290 288 286 284 280 277 275 273 271 269 267 264 262 260 256 253 252 252 249 249 251 253 250 247 248 251 251 249 248 248 244 242 244 247 247 244 242 241 241 242 241 240
318 319 319 319 319 320 320 321 318 314 309 308 308 310 310 307 301 292 287 287 289 289 289 289 289 288 287 286 287 289 290 290 290 290 288 287 287 287 288 288 289 290 291 291 290 288 286 282 278 276 273 270 268 266 263 260 258 255 251 251 250 248 245 245 245 244 244 247 251 252 250 248 248 246 244 243 245 247 247 243 242 242 243 241 237
315 317 318 319 320 321 321 321 318 314 309 306 307 309 310 308 304 296 288 285 285 285 288 291 290 288 288 288 287 287 287 287 288 290 289 288 287 287 286 286 286 288 291 293 293 292 290 286 281 276 272 268 266 264 262 259 256 254 250 248 249 248 246 246 245 243 243 247 251 252 251 249 247 246 244 242 241 243 245 244 243 242 243 242 239
313 315 318 320 322 323 324 322 319 315 309 306 307 309 309 308 306 300 293 289 287 287 288 291 292 291 291 291 290 289 288 288 289 289 289 288 288 289 288 287 286 287 291 296 300 300 297 293 287 280 276 271 267 265 264 260 257 254 249 245 245 247 248 248 248 245 243 245 248 250 251 252 251 247 243 240 238 240 242 243 242 242 242 242 240
312 315 320 323 325 326 326 324 321 317 312 309 307 307 308 308 307 303 298 292 288 287 288 289 291 293 294 294 294 293 291 291 291 290 289 289 288 288 288 287 287 288 292 297 303 306 306 302 295 289 284 279 274 271 268 264 260 255 247 240 239 244 247 248 248 249 249 248 247 248 251 254 254 250 243 238 235 237 240 241 241 241 241 240 238
312 314 319 325 328 328 327 325 323 320 316 312 308 306 306 308 307 304 299 293 289 287 287 287 288 289 290 292 292 291 290 291 292 291 291 290 289 288 287 287 288 289 293 297 303 308 309 305 297 290 287 284 279 274 271 268 265 260 251 241 238 241 247 249 249 251 253 251 246 246 250 252 252 249 243 236 233 234 237 239 240 240 239 238 236
311 312 317 323 328 330 329 327 325 323 318 313 309 306 306 308 307 303 298 294 291 290 289 288 288 288 289 290 291 291 291 291 290 289 287 287 287 287 287 286 286 287 289 294 300 307 309 303 291 282 281 281 279 273 267 262 260 259 257 252 246 244 247 248 247 247 250 249 246 247 249 250 248 245 239 233 230 232 236 237 238 238 237 235 234
307 307 311 317 325 330 331 329 327 324 320 315 310 309 309 309 308 306 302 298 296 295 294 294 294 294 294 295 296 297 298 298 296 293 289 284 282 281 282 284 284 283 284 287 293 301 306 298 283 273 273 277 279 275 267 259 254 253 254 254 252 249 247 247 246 246 246 246 246 249 250 249 246 242 236 230 229 232 234 236 236 237 235 234 233
301 302 306 313 319 326 331 331 328 325 322 317 312 309 310 311 310 310 308 307 306 304 302 301 300 299 299 300 301 303 304 305 305 302 296 289 283 278 276 278 279 279 280 282 286 293 300 297 281 269 267 271 277 279 276 271 266 262 259 257 255 251 248 246 246 246 243 241 242 246 248 248 245 241 234 229 229 232 234 235 237 237 235 232 231
295 299 304 311 317 322 328 331 329 326 323 318 313 309 309 310 310 310 310 310 309 308 306 303 301 300 300 300 301 303 305 306 307 306 302 296 288 281 276 274 274 274 277 280 282 285 292 295 286 273 266 265 268 274 280 282 283 283 278 271 263 255 250 247 245 242 237 234 236 240 244 245 244 239 234 230 230 231 232 233 235 235 233 232 231
283 292 298 306 314 319 323 327 328 327 323 319 314 310 308 307 306 306 306 306 307 307 306 304 303 301 300 299 300 301 304 305 307 307 305 301 294 287 280 275 273 272 273 276 279 280 283 288 290 282 271 265 263 266 273 283 290 293 294 290 277 263 253 248 244 237 232 231 232 235 238 241 241 238 234 232 231 230 229 229 231 232 233 232 232
273 279 287 293 303 313 318 321 324 326 324 321 316 311 307 305 303 302 302 303 305 306 306 306 305 303 301 300 300 301 302 304 305 307 307 305 299 293 288 283 278 276 273 272 273 276 277 280 284 281 273 269 270 271 275 282 288 291 293 294 289 274 259 250 244 238 235 235 236 237 239 241 241 238 234 232 232 231 228 227 230 232 234 234 233
279 274 275 281 290 299 307 313 318 322 323 322 319 314 309 305 303 301 301 301 303 306 307 308 307 305 303 302 301 300 301 303 304 305 307 306 302 298 295 290 284 279 276 273 272 272 273 275 278 278 275 274 277 282 286 290 292 291 288 287 285 279 267 255 247 242 241 242 243 244 245 247 246 241 236 234 233 231 227 226 228 232 233 233 233
Height
3115 3114 3112 3111 3110 3109 3108 3106 3105 3104 3102 3101 3100 3098 3097 3096 3095 3095 3095 3095 3095 3095 3095 3095 3095 3097 3098 3099 3100 3101 3102 3103 3104 3105 3106 3106 3107 3108 3108 3109 3110 3110 3111 3112 3112 3112 3113 3113 3113 3113 3112 3112 3112 3112 3111 3111 3111 3110 3110 3109 3109 3108 3108 3107 3107 3107 3107 3107 3107 3107 3107 3107 3107 3107 3107 3108 3108 3109 3109 3110 3111 3111 3112 3112 3112
3113 3112 3110 3108 3107 3106 3105 3104 3103 3102 3100 3099 3097 3096 3095 3093 3092 3091 3091 3091 3090 3091 3091 3091 3092 3092 3093 3094 3094 3095 3096 3097 3098 3100 3101 3102 3102 3103 3104 3105 3106 3107 3108 3108 3109 3109 3110 3110 3110 3110 3110 3110 3109 3109 3109 3109 3108 3108 3108 3107 3106 3106 3105 3105 3105 3105 3105 3105 3105 3105 3105 3105 3105 3104 3104 3104 3105 3106 3106 3107 3108 3108 3109 3109 3108
3110 3109 3108 3106 3105 3103 3102 3101 3100 3099 3097 3096 3095 3093 3092 3091 3089 3088 3088 3088 3087 3086 3087 3087 3087 3087 3087 3088 3089 3090 3090 3091 3092 3094 3095 3096 3097 3098 3100 3101 3102 3103 3104 3105 3105 3106 3106 3107 3107 3107 3107 3107 3107 3107 3106 3106 3106 3105 3105 3105 3104 3104 3103 3103 3103 3102 3103 3103 3103 3102 3102 3102 3102 3102 3102 3102 3103 3103 3104 3104 3105 3106 3106 3105 3105
3108 3107 3105 3104 3103 3101 3099 3098 3097 3096 3094 3093 3091 3090 3089 3087 3086 3085 3084 3084 3083 3082 3082 3082 3083 3083 3082 3083 3084 3085 3085 3086 3086 3087 3088 3090 3092 3094 3096 3097 3098 3099 3100 3101 3101 3102 3103 3103 3103 3104 3104 3104 3104 3104 3104 3103 3103 3103 3102 3102 3102 3101 3101 3100 3100 3100 3100 3100 3100 3100 3099 3099 3099 3099 3100 3101 3101 3101 3102 3102 3103 3103 3103 3102 3102
3106 3104 3103 3101 3100 3099 3097 3095 3094 3092 3091 3090 3088 3087 3085 3084 3083 3082 3080 3080 3079 3079 3078 3078 3078 3078 3078 3079 3079 3080 3080 3081 3081 3080 3081 3084 3087 3090 3091 3093 3094 3095 3096 3097 3098 3098 3099 3100 3100 3100 3100 3101 3101 3101 3101 3100 3100 3100 3100 3099 3099 3099 3098 3098 3098 3098 3097 3097 3097 3097 3097 3097 3097 3097 3098 3098 3099 3100 3100 3100 3100 3100 3099 3099 3099
3105 3103 3101 3099 3097 3096 3094 3093 3091 3090 3088 3087 3086 3084 3082 3081 3080 3079 3077 3076 3076 3075 3075 3074 3074 3074 3074 3074 3075 3075 3076 3076 3075 3075 3076 3079 3081 3085 3087 3088 3089 3090 3092 3093 3094 3094 3095 3096 3096 3096 3097 3097 3097 3097 3097 3097 3097 3097 3097 3097 3096 3096 3096 3096 3095 3095 3095 3095 3095 3095 3094 3094 3094 3095 3095 3096 3096 3097 3098 3098 3098 3097 3097 3097 3096
3103 3101 3099 3097 3095 3093 3091 3090 3088 3087 3086 3084 3083 3082 3080 3078 3077 3077 3075 3074 3072 3072 3071 3071 3070 3070 3070 3071 3071 3071 3072 3072 3071 3071 3073 3074 3076 3080 3082 3084 3085 3086 3088 3089 3090 3091 3091 3092 3092 3093 3093 3093 3093 3094 3094 3094 3094 3094 3094 3094 3093 3093 3093 3093 3093 3092 3092 3092 3092 3092 3092 3092 3092 3092 3093 3093 3093 3094 3095 3095 3096 3095 3094 3094 3094
3101 3099 3098 3096 3093 3091 3089 3087 3085 3084 3083 3082 3081 3079 3078 3076 3075 3074 3073 3071 3070 3069 3068 3068 3067 3067 3067 3067 3067 3068 3069 3068 3068 3068 3070 3071 3073 3076 3078 3080 3081 3082 3083 3085 3086 3087 3087 3088 3088 3089 3089 3089 3089 3090 3090 3091 3091 3091 3091 3091 3091 3090 3090 3090 3090 3090 3089 3089 3090 3090 3090 3089 3090 3090 3090 3090 3091 3091 3091 3092 3093 3092 3092 3091 3091
3098 3096 3095 3093 3091 3089 3087 3085 3083 3081 3080 3079 3078 3077 3075 3074 3072 3071 3070 3069 3068 3066 3065 3065 3065 3064 3064 3064 3064 3065 3065 3065 3066 3066 3067 3069 3071 3073 3075 3076 3077 3078 3079 3081 3082 3083 3084 3084 3085 3085 3086 3086 3086 3086 3087 3087 3087 3088 3088 3088 3087 3087 3087 3087 3087 3087 3087 3087 3087 3087 3087 3087 3087 3087 3088 3088 3088 3088 3089 3089 3090 3090 3089 3089 3089
3095 3093 3091 3089 3088 3086 3085 3083 3080 3078 3076 3075 3074 3073 3072 3071 3070 3069 3068 3066 3065 3064 3063 3063 3062 3062 3062 3061 3061 3062 3063 3063 3064 3065 3066 3067 3069 3070 3071 3072 3073 3074 3076 3077 3079 3079 3080 3081 3081 3082 3082 3082 3082 3082 3083 3083 3084 3084 3084 3084 3084 3084 3084 3084 3084 3084 3084 3084 3084 3084 3084 3084 3084 3085 3085 3085 3086 3086 3086 3087 3087 3088 3087 3087 3086
3093 3090 3088 3086 3084 3083 3081 3080 3078 3075 3073 3072 3071 3070 3069 3068 3067 3066 3065 3064 3063 3062 3061 3061 3060 3059 3059 3059 3059 3059 3060 3061 3062 3063 3063 3064 3065 3066 3067 3069 3070 3071 3072 3073 3075 3075 3076 3077 3078 3079 3079 3079 3079 3079 3079 3080 3081 3081 3081 3081 3081 3081 3081 3081 3081 3081 3081 3081 3081 3081 3081 3081 3082 3082 3082 3083 3083 3083 3084 3085 3085 3085 3085 3085 3084
3090 3087 3085 3083 3080 3079 3077 3076 3075 3073 3071 3069 3068 3067 3066 3065 3064 3064 3062 3061 3061 3060 3059 3059 3058 3057 3057 3056 3056 3057 3057 3058 3060 3060 3060 3061 3062 3063 3064 3066 3067 3068 3069 3070 3071 3072 3073 3074 3075 3076 3076 3076 3075 3076 3076 3077 3077 3078 3078 3078 3078 3078 3078 3078 3078 3078 3078 3078 3078 3078 3078 3078 3079 3079 3079 3080 3080 3081 3081 3082 3082 3083 3083 3083 3082
3086 3084 3082 3080 3077 3075 3073 3072 3071 3070 3068 3066 3064 3063 3062 3061 3061 3061 3060 3059 3058 3057 3057 3056 3056 3055 3055 3054 3054 3054 3055 3055 3056 3057 3057 3058 3059 3060 3061 3062 3063 3065 3066 3067 3068 3069 3071 3071 3071 3072 3072 3072 3072 3072 3073 3074 3074 3075 3075 3075 3075 3075 3075 3075 3075 3075 3075 3075 3075 3075 3075 3075 3076 3076 3076 3077 3077 3078 3079 3079 3079 3080 3080 3080 3080
3083 3081 3079 3077 3074 3072 3070 3068 3067 3066 3065 3063 3061 3060 3059 3058 3058 3057 3057 3056 3055 3055 3054 3054 3053 3053 3053 3052 3052 3052 3052 3053 3053 3054 3054 3055 3056 3057 3058 3059 3060 3061 3063 3064 3065 3066 3067 3068 3068 3068 3069 3069 3069 3069 3070 3071 3071 3072 3072 3072 3072 3072 3072 3072 3072 3073 3073 3073 3073 3073 3073 3073 3073 3073 3073 3074 3075 3075 3076 3077 3077 3077 3077 3078 3077
3081 3078 3076 3074 3071 3069 3067 3065 3063 3062 3060 3060 3059 3057 3055 3055 3054 3054 3054 3054 3053 3052 3052 3051 3051 3051 3050 3050 3050 3050 3050 3050 3050 3050 3051 3051 3052 3054 3055 3056 3057 3058 3059 3061 3062 3063 3063 3064 3064 3065 3065 3066 3066 3066 3067 3068 3069 3069 3069 3069 3069 3069 3069 3069 3070 3070 3070 3070 3070 3071 3070 3070 3070 3070 3071 3071 3072 3073 3074 3074 3075 3075 3075 3075 3075
3078 3076 3073 3071 3068 3066 3064 3062 3060 3058 3056 3056 3055 3055 3053 3052 3051 3050 3050 3050 3050 3049 3049 3048 3048 3048 3048 3048 3048 3048 3048 3047 3047 3047 3047 3048 3049 3050 3051 3052 3053 3055 3056 3058 3059 3059 3060 3060 3061 3062 3062 3063 3063 3063 3064 3065 3065 3066 3066 3066 3066 3067 3067 3067 3067 3067 3067 3068 3068 3068 3068 3068 3068 3068 3068 3069 3069 3070 3071 3072 3072 3073 3073 3073 3073
3076 3073 3071 3068 3066 3064 3061 3059 3057 3055 3053 3052 3052 3051 3050 3049 3048 3047 3046 3046 3047 3047 3046 3046 3045 3045 3046 3046 3046 3046 3046 3045 3045 3045 3045 3045 3045 3046 3047 3048 3049 3051 3053 3054 3055 3055 3056 3057 3057 3058 3059 3060 3060 3060 3061 3062 3062 3063 3063 3064 3064 3064 3064 3065 3065 3065 3065 3065 3066 3066 3066 3066 3066 3066 3066 3067 3067 3068 3069 3069 3070 3070 3071 3071 3071
3073 3070 3068 3066 3063 3061 3059 3056 3054 3052 3050 3048 3048 3047 3047 3046 3045 3044 3043 3043 3043 3043 3043 3043 3043 3043 3043 3043 3043 3043 3043 3043 3042 3042 3042 3042 3043 3043 3043 3043 3044 3046 3047 3048 3049 3050 3052 3053 3054 3054 3055 3056 3057 3058 3058 3059 3060 3060 3061 3061 3061 3062 3062 3062 3062 3063 3063 3063 3064 3064 3065 3065 3065 3064 3065 3065 3065 3066 3066 3067 3068 3068 3068 3069 3068
3070 3068 3065 3063 3061 3059 3057 3054 3052 3049 3047 3046 3044 3043 3043 3042 3042 3041 3040 3040 3039 3040 3040 3040 3040 3040 3040 3040 3040 3040 3040 3040 3040 3040 3040 3040 3040 3040 3040 3040 3041 3041 3042 3043 3044 3046 3048 3049 3050 3051 3052 3053 3054 3055 3056 3056 3057 3058 3058 3059 3059 3059 3060 3060 3060 3060 3061 3061 3062 3062 3063 3063 3063 3063 3063 3063 3063 3064 3064 3065 3065 3065 3066 3066 3066
3068 3066 3063 3061 3059 3057 3055 3052 3050 3048 3045 3044 3042 3041 3040 3039 3038 3038 3037 3037 3036 3036 3036 3037 3037 3037 3037 3037 3037 3037 3038 3037 3037 3037 3037 3037 3038 3038 3038 3038 3038 3039 3039 3040 3041 3043 3044 3045 3047 3047 3048 3049 3050 3052 3053 3053 3054 3055 3056 3056 3056 3057 3057 3057 3058 3058 3059 3059 3060 3060 3061 3061 3061 3061 3061 3061 3062 3062 3062 3063 3063 3063 3063 3064 3064
3066 3064 3061 3059 3057 3055 3053 3051 3048 3046 3044 3042 3041 3039 3038 3037 3036 3035 3035 3034 3034 3033 3033 3034 3034 3033 3033 3033 3034 3034 3035 3035 3035 3035 3035 3035 3035 3036 3036 3036 3037 3037 3037 3038 3039 3040 3041 3042 3044 3044 3045 3046 3047 3048 3049 3050 3050 3051 3052 3053 3054 3054 3055 3055 3055 3056 3056 3057 3058 3058 3059 3059 3059 3059 3059 3060 3060 3060 3060 3061 3061 3061 3061 3061 3062
3064 3062 3060 3058 3055 3053 3051 3049 3047 3045 3043 3041 3039 3038 3037 3035 3034 3033 3032 3032 3031 3031 3030 3031 3031 3031 3030 3030 3030 3031 3032 3032 3032 3032 3032 3033 3033 3033 3034 3034 3035 3035 3035 3036 3037 3038 3039 3040 3041 3041 3042 3043 3044 3045 3046 3046 3047 3048 3049 3050 3051 3051 3052 3053 3053 3054 3054 3055 3056 3056 3057 3057 3057 3057 3058 3058 3058 3058 3058 3059 3059 3059 3059 3059 3059
3061 3060 3058 3056 3054 3051 3050 3048 3046 3043 3041 3039 3037 3036 3035 3034 3032 3031 3030 3030 3029 3028 3028 3028 3028 3028 3028 3027 3027 3028 3028 3029 3029 3029 3029 3030 3030 3031 3031 3032 3032 3032 3033 3034 3034 3035 3036 3037 3038 3038 3039 3040 3041 3042 3042 3043 3044 3045 3046 3047 3047 3048 3049 3050 3051 3052 3052 3053 3053 3054 3055 3055 3055 3055 3056 3056 3056 3056 3056 3057 3057 3057 3057 3057 3057
3059 3058 3056 3054 3052 3050 3048 3046 3044 3042 3039 3038 3036 3034 3033 3032 3030 3029 3028 3028 3027 3026 3026 3025 3025 3025 3025 3025 3024 3024 3025 3026 3026 3026 3026 3027 3027 3028 3028 3029 3029 3030 3030 3031 3032 3033 3034 3035 3035 3036 3036 3037 3038 3039 3039 3040 3041 3042 3042 3044 3045 3045 3046 3047 3049 3050 3050 3051 3051 3052 3052 3053 3053 3053 3054 3054 3054 3054 3054 3054 3055 3055 3055 3055 3055
3057 3055 3053 3051 3050 3048 3046 3044 3042 3040 3038 3036 3034 3032 3030 3029 3028 3027 3026 3025 3025 3024 3023 3023 3022 3022 3022 3022 3022 3021 3022 3022 3023 3023 3023 3024 3024 3025 3026 3026 3027 3027 3028 3028 3029 3030 3031 3032 3032 3033 3034 3035 3035 3036 3037 3038 3038 3039 3039 3040 3041 3042 3043 3044 3045 3047 3047 3048 3049 3049 3050 3051 3051 3051 3052 3052 3051 3051 3052 3052 3052 3052 3053 3053 3053
3055 3053 3051 3049 3047 3045 3044 3042 3041 3039 3036 3034 3032 3030 3028 3026 3025 3025 3024 3023 3022 3021 3021 3020 3019 3019 3019 3019 3019 3019 3019 3019 3020 3020 3020 3021 3021 3022 3023 3024 3024 3025 3025 3026 3027 3027 3028 3029 3030 3031 3032 3032 3033 3034 3035 3035 3035 3036 3036 3037 3038 3039 3039 3040 3042 3043 3044 3045 3046 3047 3048 3049 3049 3049 3049 3049 3049 3049 3049 3050 3050 3050 3050 3050 3050
3052 3050 3048 3046 3045 3043 3041 3040 3039 3037 3035 3033 3031 3028 3026 3024 3023 3022 3021 3021 3021 3019 3018 3017 3017 3016 3017 3017 3017 3017 3016 3016 3016 3017 3018 3018 3019 3020 3020 3021 3022 3023 3023 3024 3024 3025 3026 3026 3027 3028 3029 3030 3030 3031 3032 3032 3032 3033 3033 3034 3035 3035 3036 3037 3038 3040 3041 3041 3042 3043 3044 3046 3046 3046 3047 3047 3047 3047 3047 3047 3048 3048 3048 3048 3048
3049 3048 3046 3044 3042 3040 3039 3037 3036 3035 3033 3031 3029 3027 3024 3023 3021 3019 3018 3018 3018 3017 3016 3015 3015 3014 3014 3014 3014 3014 3013 3013 3014 3014 3015 3015 3016 3017 3018 3018 3019 3020 3020 3020 3021 3022 3022 3023 3024 3025 3026 3026 3027 3028 3028 3029 3029 3030 3030 3031 3031 3032 3032 3033 3035 3036 3037 3037 3038 3039 3041 3042 3043 3043 3044 3045 3045 3045 3045 3045 3045 3046 3046 3045 3045
3047 3045 3044 3042 3040 3038 3037 3035 3033 3032 3031 3029 3027 3025 3022 3020 3019 3017 3016 3016 3015 3015 3014 3013 3013 3012 3011 3011 3011 3011 3010 3010 3011 3011 3012 3012 3013 3014 3014 3015 3016 3017 3017 3017 3018 3018 3019 3020 3021 3022 3023 3023 3024 3024 3025 3025 3026 3027 3027 3028 3028 3028 3028 3029 3031 3032 3033 3034 3035 3036 3037 3038 3039 3040 3041 3042 3042 3043 3043 3043 3043 3043 3044 3043 3043
3045 3043 3041 3039 3038 3036 3034 3033 3031 3030 3028 3027 3026 3024 3022 3019 3016 3015 3014 3014 3013 3012 3011 3011 3010 3010 3009 3009 3008 3008 3008 3008 3008 3008 3009 3009 3010 3011 3011 3011 3012 3013 3013 3014 3014 3015 3016 3017 3018 3019 3019 3020 3020 3021 3021 3022 3022 3023 3024 3024 3024 3025 3025 3026 3027 3028 3029 3030 3031 3032 3033 3035 3036 3037 3038 3039 3040 3040 3040 3040 3041 3041 3041 3041 3041
3042 3040 3039 3037 3035 3033 3032 3030 3029 3028 3026 3025 3023 3022 3021 3020 3017 3014 3012 3012 3011 3010 3009 3008 3008 3008 3007 3007 3006 3006 3006 3006 3006 3006 3006 3006 3007 3007 3008 3008 3009 3009 3010 3010 3011 3012 3013 3014 3015 3015 3016 3016 3016 3017 3017 3018 3019 3020 3020 3021 3021 3021 3022 3022 3023 3024 3025 3026 3028 3029 3030 3031 3032 3034 3035 3036 3037 3037 3037 3038 3038 3038 3039 3039 3039
3040 3038 3036 3034 3033 3031 3029 3028 3027 3025 3024 3023 3021 3019 3018 3018 3017 3015 3012 3010 3009 3008 3007 3006 3006 3005 3005 3005 3004 3004 3004 3004 3003 3003 3003 3003 3004 3004 3004 3005 3005 3005 3006 3006 3007 3008 3009 3010 3011 3012 3012 3013 3013 3013 3014 3014 3015 3016 3017 3017 3018 3018 3019 3019 3019 3020 3021 3022 3024 3025 3026 3028 3029 3030 3031 3032 3033 3034 3034 3035 3035 3036 3036 3036 3036
3038 3036 3034 3032 3030 3029 3027 3025 3024 3023 3021 3020 3019 3017 3016 3015 3015 3014 3012 3010 3008 3006 3005 3004 3004 3003 3003 3003 3002 3002 3002 3001 3001 3001 3001 3001 3000 3001 3001 3001 3001 3002 3002 3003 3004 3005 3005 3006 3007 3007 3008 3009 3010 3010 3010 3011 3011 3012 3013 3014 3014 3015 3015 3015 3016 3016 3017 3018 3019 3020 3022 3024 3025 3026 3028 3029 3030 3031 3032 3032 3032 3033 3033 3034 3034
3036 3034 3032 3030 3028 3026 3025 3023 3021 3020 3019 3017 3016 3015 3014 3012 3011 3011 3010 3009 3008 3006 3004 3003 3002 3001 3000 3000 3000 3000 2999 2999 2999 2998 2998 2998 2998 2998 2998 2998 2999 2999 2999 3000 3000 3001 3001 3002 3002 3003 3004 3004 3005 3006 3006 3006 3007 3008 3009 3010 3010 3011 3011 3011 3012 3013 3014 3014 3015 3016 3017 3019 3021 3022 3024 3025 3026 3028 3028 3029 3029 3030 3030 3031 3031
3034 3032 3030 3028 3026 3024 3022 3020 3019 3017 3016 3015 3013 3013 3011 3010 3009 3008 3007 3006 3006 3005 3004 3002 3001 2999 2998 2998 2997 2997 2996 2996 2996 2996 2996 2996 2996 2996 2996 2996 2996 2996 2996 2997 2997 2997 2998 2998 2999 2999 2999 3000 3001 3001 3002 3002 3003 3003 3005 3005 3006 3006 3007 3008 3009 3010 3010 3011 3012 3012 3013 3014 3015 3017 3019 3021 3022 3024 3025 3026 3026 3027 3027 3027 3027
3032 3030 3028 3026 3024 3022 3020 3018 3016 3015 3013 3012 3011 3010 3009 3008 3006 3006 3005 3003 3002 3002 3001 3000 2999 2998 2997 2996 2995 2994 2994 2993 2993 2993 2993 2993 2993 2993 2993 2993 2993 2993 2993 2993 2993 2993 2993 2994 2994 2995 2995 2995 2996 2996 2997 2998 2998 2999 3000 3001 3001 3002 3003 3004 3005 3006 3007 3008 3008 3008 3009 3009 3009 3011 3013 3015 3017 3019 3021 3022 3023 3023 3024 3024 3024
3029 3028 3026 3024 3022 3020 3018 3016 3014 3012 3011 3009 3008 3007 3007 3005 3004 3003 3002 3001 3000 2999 2998 2998 2997 2996 2995 2994 2993 2992 2992 2991 2991 2991 2990 2990 2990 2990 2990 2990 2990 2990 2989 2989 2989 2989 2989 2989 2989 2989 2990 2990 2990 2991 2992 2993 2993 2994 2995 2996 2996 2998 2999 3000 3001 3002 3003 3004 3004 3004 3004 3004 3005 3007 3009 3010 3012 3014 3017 3018 3019 3020 3020 3021 3021
3027 3025 3024 3022 3020 3018 3016 3014 3012 3010 3009 3007 3006 3005 3004 3003 3001 3000 2999 2998 2997 2996 2995 2995 2994 2994 2993 2993 2992 2991 2990 2990 2989 2988 2988 2987 2987 2987 2986 2986 2986 2986 2986 2986 2986 2986 2986 2985 2985 2985 2985 2985 2985 2986 2987 2987 2988 2989 2990 2991 2992 2993 2994 2995 2996 2998 2999 2999 3000 3000 3000 3000 3002 3004 3005 3007 3008 3011 3013 3015 3016 3017 3017 3018 3018
3025 3023 3022 3020 3018 3015 3013 3011 3010 3008 3006 3005 3003 3002 3001 3000 2999 2997 2997 2996 2994 2994 2993 2992 2992 2991 2991 2990 2990 2989 2989 2988 2988 2987 2986 2986 2985 2984 2984 2983 2983 2983 2983 2982 2982 2982 2982 2981 2981 2980 2980 2980 2981 2981 2981 2982 2983 2984 2985 2986 2987 2988 2990 2991 2992 2994 2995 2995 2995 2996 2996 2997 2998 3000 3002 3003 3005 3007 3010 3011 3013 3014 3014 3015 3016
3023 3021 3020 3018 3015 3013 3011 3009 3007 3005 3004 3002 3001 3000 2998 2997 2996 2995 2994 2993 2992 2991 2990 2990 2989 2988 2988 2988 2987 2987 2987 2986 2985 2985 2984 2984 2983 2982 2982 2981 2981 2980 2979 2979 2978 2978 2978 2977 2976 2976 2976 2975 2975 2976 2976 2977 2977 2978 2979 2980 2982 2983 2985 2987 2988 2989 2990 2991 2991 2992 2993 2994 2995 2996 2998 2999 3001 3003 3006 3007 3009 3010 3011 3012 3012
3020 3019 3017 3015 3013 3011 3009 3007 3004 3002 3001 2999 2998 2997 2996 2994 2993 2992 2991 2991 2990 2989 2988 2987 2986 2986 2985 2985 2985 2984 2984 2983 2983 2982 2981 2981 2980 2979 2979 2978 2978 2977 2976 2976 2975 2974 2974 2973 2972 2971 2971 2970 2970 2970 2971 2971 2972 2973 2974 2975 2976 2978 2980 2981 2983 2985 2986 2987 2988 2988 2989 2990 2991 2992 2994 2996 2998 2999 3001 3003 3004 3006 3007 3008 3009
3018 3016 3015 3013 3011 3008 3006 3004 3002 3000 2998 2997 2995 2994 2993 2992 2990 2989 2989 2988 2987 2987 2986 2985 2984 2983 2982 2982 2982 2981 2981 2980 2980 2979 2978 2978 2977 2976 2976 2975 2975 2974 2973 2973 2972 2971 2970 2969 2968 2967 2966 2966 2965 2965 2966 2966 2967 2968 2969 2970 2972 2974 2975 2976 2978 2979 2981 2982 2983 2984 2985 2986 2987 2988 2989 2991 2993 2995 2997 2999 3000 3001 3003 3005 3006
3016 3014 3012 3010 3008 3006 3003 3001 2999 2998 2996 2995 2993 2992 2990 2989 2988 2987 2986 2986 2985 2984 2984 2983 2982 2981 2980 2979 2979 2978 2978 2977 2977 2976 2975 2974 2974 2974 2973 2972 2972 2971 2970 2969 2968 2967 2966 2965 2964 2963 2962 2962 2961 2961 2961 2962 2962 2963 2964 2966 2968 2970 2971 2972 2973 2975 2976 2977 2978 2979 2980 2981 2982 2983 2984 2986 2989 2991 2992 2994 2995 2997 2999 3001 3002
3013 3011 3010 3008 3006 3003 3001 2999 2997 2995 2994 2992 2991 2989 2988 2987 2986 2985 2984 2983 2982 2982 2981 2980 2979 2978 2977 2977 2976 2975 2975 2974 2974 2973 2972 2971 2971 2970 2970 2969 2968 2968 2967 2966 2965 2964 2963 2962 2961 2960 2959 2958 2958 2958 2958 2958 2959 2959 2960 2962 2963 2965 2967 2968 2968 2970 2971 2972 2973 2974 2974 2975 2976 2977 2979 2981 2984 2986 2988 2990 2992 2993 2995 2997 2998
3010 3008 3007 3005 3003 3001 2999 2996 2995 2993 2992 2990 2989 2987 2986 2985 2984 2983 2982 2981 2980 2979 2978 2977 2977 2976 2975 2974 2973 2972 2971 2971 2970 2970 2969 2968 2967 2967 2967 2966 2965 2965 2964 2963 2962 2961 2960 2959 2958 2957 2957 2956 2955 2955 2955 2956 2956 2957 2957 2958 2959 2961 2962 2963 2963 2964 2965 2966 2967 2968 2968 2969 2970 2972 2973 2976 2979 2982 2984 2986 2988 2989 2991 2993 2994
3006 3005 3004 3002 3001 2999 2996 2994 2993 2991 2990 2988 2987 2985 2984 2983 2981 2980 2979 2978 2977 2976 2975 2975 2974 2973 2972 2971 2970 2969 2968 2968 2967 2966 2965 2965 2964 2963 2963 2962 2962 2961 2961 2960 2959 2958 2957 2957 2956 2955 2955 2954 2954 2953 2953 2953 2954 2954 2955 2955 2956 2956 2957 2958 2958 2959 2960 2961 2962 2963 2963 2964 2965 2967 2969 2972 2975 2978 2980 2982 2984 2985 2987 2989 2991
3001 3001 3000 2999 2998 2996 2994 2992 2990 2989 2987 2986 2984 2983 2982 2980 2979 2978 2977 2976 2975 2974 2973 2972 2971 2971 2970 2969 2968 2966 2965 2964 2963 2962 2962 2961 2960 2960 2959 2959 2959 2958 2957 2957 2956 2955 2955 2954 2954 2953 2953 2952 2952 2952 2951 2951 2951 2952 2952 2952 2952 2952 2952 2952 2953 2954 2955 2956 2957 2958 2959 2960 2961 2963 2965 2968 2972 2974 2977 2979 2981 2982 2984 2985 2987
2997 2997 2996 2995 2994 2993 2991 2990 2988 2986 2985 2983 2982 2981 2980 2978 2977 2976 2975 2974 2973 2972 2971 2970 2969 2968 2967 2966 2965 2964 2962 2961 2960 2959 2958 2958 2957 2956 2956 2955 2955 2955 2954 2954 2953 2952 2952 2951 2951 2951 2950 2950 2950 2950 2949 2949 2949 2949 2949 2948 2948 2948 2948 2948 2948 2949 2950 2950 2952 2953 2954 2956 2958 2960 2962 2965 2968 2971 2973 2976 2977 2979 2980 2981 2983
2993 2993 2993 2991 2990 2990 2989 2987 2986 2984 2982 2981 2980 2979 2977 2976 2975 2974 2973 2972 2971 2970 2968 2967 2966 2965 2964 2963 2962 2961 2960 2958 2957 2956 2955 2955 2954 2953 2952 2952 2952 2952 2952 2951 2950 2950 2949 2949 2948 2948 2948 2947 2947 2947 2947 2947 2946 2946 2946 2945 2944 2944 2944 2944 2945 2945 2946 2946 2948 2949 2951 2952 2954 2957 2959 2962 2965 2967 2970 2972 2974 2975 2976 2978 2979
2989 2989 2989 2988 2987 2986 2985 2984 2983 2981 2980 2978 2977 2976 2975 2974 2973 2972 2971 2969 2968 2967 2966 2965 2963 2962 2961 2960 2959 2958 2957 2956 2954 2953 2952 2952 2951 2950 2950 2949 2949 2949 2949 2948 2948 2947 2946 2946 2945 2945 2945 2945 2944 2944 2944 2943 2943 2943 2943 2942 2942 2941 2941 2941 2942 2942 2943 2944 2945 2946 2948 2949 2951 2954 2956 2959 2961 2964 2966 2968 2970 2971 2973 2974 2976
2986 2985 2984 2983 2983 2982 2982 2981 2980 2978 2977 2976 2975 2974 2973 2972 2971 2969 2968 2967 2966 2965 2963 2962 2960 2959 2957 2956 2956 2955 2954 2953 2952 2951 2950 2949 2949 2948 2947 2947 2946 2946 2945 2945 2945 2944 2944 2943 2943 2942 2942 2942 2942 2942 2941 2941 2941 2941 2940 2940 2940 2939 2939 2939 2939 2940 2941 2942 2943 2944 2946 2947 2949 2951 2954 2956 2958 2960 2963 2965 2966 2968 2969 2971 2972